www.pogodaiklimat.ru

Погода и климат >> Архив погоды >> Пакистан >> Khanpur


ПОГОДА в Khanpur

  • Прогноз погоды в Khanpur
  • Монитор погоды в Khanpur
  • Климат города

АРХИВ ПОГОДЫ в Khanpur

Время (UTC), дата Ветер
(напр.,м/с)
 
Видим.   Явления Облачность Т
(С)
Тd
(С)
f
(%)
Тe
(С)
Тes
(С)
Комфортность P
(гПа)
Po
(гПа)
Тmin
(С)
Tmax
(С)
R
(мм)
R24
(мм)
S
(см)
09 11.08 ЮЗ 2 4000 м дым ясно +37.0 +25.2 51 +51 +68 опасность
перегрева
995.2 1000.0
12 11.08 ЮЗ 2 4000 м мгла ясно +39.0 +25.2 46 +52 +56 опасность
перегрева
993.3 1004.6 +39.5
15 11.08 штиль 0 4000 м дым 4/0
[Ac trans]
+35.5 +27.6 64 +55 +55 опасность
перегрева
992.3 1000.0
18 11.08 ЮЗ 2 4000 м дым ясно +34.0 +25.7 62 +49 +49 опасность
перегрева
994.1 984.5
21 11.08 ЮЗ 1 4000 м дым ясно +32.0 +25.0 67 +46 +46 опасность
перегрева
993.1 981.4
00 12.08 штиль 0 4000 м дым ясно +29.5 +24.5 75 +42 +42 опасность
перегрева
993.4 983.6
03 12.08 ЮЗ 3 4000 м дым ясно +29.0 +23.2 71 +39 +43 очень
душно
994.0 984.2 +28.0
06 12.08 ЮЗ 4 4000 м пыльный позёмок ясно +33.0 +23.8 59 +45 +59 опасность
перегрева
994.5 984.8
09 12.08 ЮЗ 2 4000 м мгла 3/0
[Ac trans]
+37.5 +24.2 47 +49 +63 опасность
перегрева
991.8 1000.0
12 12.08 штиль 0 4000 м мгла ясно +39.0 +25.2 46 +52 +57 опасность
перегрева
989.8 1005.4 +40.0
15 12.08 штиль 0 4000 м дым 6/0
[Ac trans]
+35.0 +26.1 60 +51 +51 опасность
перегрева
990.6 1000.0
18 12.08 ЮЗ 2 4000 м дым ясно +32.0 +24.2 63 +44 +44 опасность
перегрева
992.8 983.1
21 12.08 ЮЗ 1 4000 м дым ясно +29.5 +23.0 68 +39 +39 очень
душно
992.1 979.8
00 13.08 штиль 0 4000 м дым 8/0
[Ac trans]
+28.0 +23.7 77 +38 +38 очень
душно
992.4 982.5
03 13.08 ЮЗ 1 4000 м дым 9/9 300 м
[Sc Ac As]
+28.5 +24.2 78 +40 +41 очень
душно
993.6 983.8 +27.1
06 13.08 ЮЗ 1 4000 м дым 6/0
[Ac trans]
+31.5 +24.4 66 +44 +58 опасность
перегрева
994.7 985.0
09 13.08 штиль 0 4000 м дым 5/0
[Ac trans]
+36.0 +24.9 53 +49 +66 опасность
перегрева
993.6 1000.0
12 13.08 штиль 0 4000 м дым 4/0
[Ac trans]
+37.5 +25.8 51 +52 +56 опасность
перегрева
992.7 1004.8 +38.3
15 13.08 штиль 0 4000 м дым 8/0
[Ac trans]
+33.0 +26.1 67 +49 +49 опасность
перегрева
993.7 1000.0
18 13.08 штиль 0 4000 м дым ясно +32.0 +27.2 76 +50 +50 опасность
перегрева
996.0 986.3
21 13.08 штиль 0 4000 м дым ясно +31.0 +26.9 79 +48 +48 опасность
перегрева
995.2 983.4
00 14.08 штиль 0 4000 м дым 3/0
[Ac trans]
+29.0 +24.8 78 +41 +41 опасность
перегрева
995.6 985.8
03 14.08 ЮЗ 2 4000 м дым 8/0
[Ac trans]
+29.5 +24.5 75 +42 +45 опасность
перегрева
997.6 987.8 +28.3
06 14.08 ЮЗ 2 4000 м дым 8/4 300 м
[Sc diur, vesp Ac trans]
+33.0 +25.3 64 +47 +55 опасность
перегрева
998.0 988.3
09 14.08 штиль 0 4000 м дым ясно +36.5 +25.5 53 +51 +74 опасность
перегрева
996.2 1000.0
12 14.08 штиль 0 4000 м дым ясно +37.0 +26.0 53 +52 +57 опасность
перегрева
994.1 1004.1 +38.3
15 14.08 штиль 0 4000 м дым ясно +34.5 +27.7 68 +54 +54 опасность
перегрева
994.9 1000.0
18 14.08 штиль 0 4000 м дым ясно +32.0 +25.0 67 +46 +46 опасность
перегрева
996.9 987.1
21 14.08 штиль 0 4000 м дым ясно +30.0 +24.3 72 +42 +42 опасность
перегрева
996.0 984.4
00 15.08 штиль 0 4000 м дым ясно +29.0 +24.8 78 +41 +41 опасность
перегрева
996.4 986.6
03 15.08 штиль 0 4000 м дым ясно +30.0 +25.1 75 +43 +50 опасность
перегрева
997.9 988.1 +29.1
06 15.08 ЮЗ 2 4000 м дым ясно +32.0 +26.1 71 +48 +66 опасность
перегрева
998.6 988.8
09 15.08 штиль 0 4000 м дым ясно +37.0 +26.0 53 +52 +75 опасность
перегрева
997.3 1000.0
12 15.08 штиль 0 4000 м дым ясно +39.0 +26.8 50 +55 +60 опасность
перегрева
995.7 1001.1 +39.5
15 15.08 штиль 0 4000 м дым ясно +35.0 +26.8 63 +53 +53 опасность
перегрева
996.3 996.0
18 15.08 штиль 0 4000 м дым ясно +32.0 +25.8 70 +47 +47 опасность
перегрева
998.5 988.7
21 15.08 штиль 0 4000 м дым ясно +30.0 +25.1 75 +43 +43 опасность
перегрева
997.7 987.5
00 16.08 штиль 0 4000 м дым ясно +30.0 +25.1 75 +43 +43 опасность
перегрева
998.8 989.0
03 16.08 штиль 0 4000 м дым ясно +31.0 +25.4 72 +45 +52 опасность
перегрева
999.5 989.7 +29.3
06 16.08 штиль 0 4000 м дым ясно +35.0 +25.3 57 +49 +74 опасность
перегрева
1000.8 991.1
09 16.08 штиль 0 4000 м дым ясно +38.0 +25.6 49 +52 +75 опасность
перегрева
998.9 1000.0
12 16.08 штиль 0 4000 м гроза с градом н/о +29.0 +28.3 96 +49 +49 опасность
перегрева
1000.1 990.3 +39.3 10
15 16.08 штиль 0 4000 м дым 6/0
[Ac trans]
+28.0 +25.2 85 +41 +41 опасность
перегрева
999.0 987.0 8
18 16.08 штиль 0 4000 м дым 6/0
[Ac trans]
+28.0 +25.2 85 +41 +41 опасность
перегрева
999.9 989.9 18
21 16.08 штиль 0 4000 м дым 6/0
[Ac trans]
+27.0 +24.6 87 +38 +38 очень
душно
998.8 999.0
00 17.08 штиль 0 4000 м дым 6/0
[Ac trans]
+28.0 +26.6 92 +43 +43 опасность
перегрева
997.9 987.9 8
03 17.08 штиль 0 4000 м дым 6/0
[Ac trans]
+29.0 +26.9 88 +45 +50 опасность
перегрева
999.0 989.2 +27.9
06 17.08 штиль 0 4000 м дым 6/0
[Ac trans]
+34.0 +28.3 72 +55 +71 опасность
перегрева
999.6 989.9
09 17.08 штиль 0 4000 м дым ясно +37.0 +27.6 59 +56 +79 опасность
перегрева
997.7 1000.0
12 17.08 штиль 0 4000 м дым 6/6 300 м
[Sc]
+37.0 +27.6 59 +56 +58 опасность
перегрева
995.1 1003.9 +38.5
15 17.08 штиль 0 4000 м дым 6/0
[Ac trans]
+34.0 +27.2 68 +53 +53 опасность
перегрева
994.6 1000.0
18 17.08 штиль 0 4000 м дым 6/0
[Ac trans]
+32.0 +26.5 73 +49 +49 опасность
перегрева
996.5 986.7
21 17.08 штиль 0 4000 м дым 4/0
[Ac trans]
+31.0 +26.1 75 +46 +46 опасность
перегрева
995.7 996.0
00 18.08 штиль 0 4000 м дым 4/0
[Ac trans]
+30.0 +26.5 82 +46 +46 опасность
перегрева
995.7 985.9

 

Местоположение метеостанции Khanpur (Пакистан): широта 28.65 долгота 70.68 высота над уровнем моря 88 м.

В архиве по умолчанию представлена погода в Khanpur за последнюю неделю. Архивные данные за месяц целиком и за предыдущие месяцы, начиная с января 2011 года, Вы можете получить, выбрав интересующий диапазон дат из раскрывающегося списка и нажав кнопку "Ввод!".


*Определитесь, кто Вы:
робот инопланетянин человек

Внимание! Время в таблицах - всемирное. Для получения местного времени необходимо прибавить поправку, которая в Khanpur равна 5 ч.

Смотрите также архив погоды в соседних городах и на ближайших метеорологических станциях:

Погода в Bahawalpur (Пакистан) (136 км)
Погода в Barkhan (Пакистан) (166 км)
Погода в Multan (Пакистан) (187 км)
Погода в Jaisalmer (Rajasthan, Индия) (196 км)
Погода в Rohri (Пакистан) (206 км)
Погода в Jacobabad (Пакистан) (220 км)
Погода в Bikaner (Rajasthan, Индия) (267 км)
Погода в Raifiqui Airbase (Пакистан) (279 км)
Погода в Bahawalnagar (Пакистан) (288 км)
Погода в Sibi (Пакистан) (290 км)

Пояснения к столбцам:

Ветер - указаны скорость ветра в м/с - средняя за 10 мин, порывы в срок и между сроками (в фигурных скобках) и направление, откуда дует ветер: С - северный, СВ - северо-восточный, В - восточный, ЮВ - юго-восточный, Ю - южный, ЮЗ - юго-западный, З - западный, СЗ - северо-западный.
Видимость - горизонтальная дальность видимости в метрах или километрах. При видимости от 1 до 10 км при отсутствии осадков обычно наблюдается дымка, при ухудшении видимости до 1 км и менее - туман. В сухую погоду видимость может ухудшаться дымом, пылью или мглою.
Явления - указаны атмосферные явления, наблюдавшиеся в срок или в последний час перед сроком; фигурными скобками обозначены явления, наблюдавшиеся между сроками (за 1-3 часа до срока); квадратными скобками обозначены град или гололедные отложения с указанием их диаметра в мм.
Облачность - указаны через наклонную черту общая и нижняя облачность в баллах и высота нижней границы облаков в метрах; квадратными скобками обозначены формы облаков: Ci - перистые, Cs - перисто-слоистые, Cc - перисто-кучевые, Ac - высококучевые, As - высокослоистые, Sc - слоисто-кучевые, Ns - слоисто-дождевые, Cu - кучевые, Cb - кучево-дождевые. Подробнее классификацию облаков см. в Атласе облаков (PDF).
T - Температура воздуха - температура, измеренная на высоте 2 м над землей.
Td - Температура точки росы - температура, при понижении до которой содержащийся в воздухе водяной пар достигнет насыщения.
f - Относительная влажность воздуха - влажноcть воздуха, измеренная на высоте 2 м над землей.
Te - Эффективная температура - температура, которую ощущает одетый по сезону человек в тени. Характеристика душности погоды. При расчете учитывается влияние влажности воздуха и скорости ветра на теплоощущения человека.
Tes - Эффективная температура на солнце - температура, которую ощущает человек, с поправкой на солнечный нагрев. Характеристика знойности погоды. Зависит от высоты солнца над горизонтом, облачности и скорости ветра. Ночью, в пасмурную погоду, а также при ветре 12 м/с и более поправка равна нулю.
P - Атмосферное давление - приведенное к уровню моря атмосферное давление.
Po - Атмосферное давление - измеренное на уровне метеостанции атмосферное давление.
Tmin - Минимальная температура - минимум температуры воздуха на высоте 2 м над землей.
Tmax - Максимальная температура - максимум температуры воздуха на высоте 2 м над землей.
R - Количество осадков - Количество выпавших осадков за период времени, мм. При наведении курсора мыши на число - период времени, за который выпало указанное количество осадков.
R24 - Количество осадков - Количество выпавших осадков за 24 часа, мм.
S - Снежный покров - Высота снежного покрова, см. При наведении курсора мыши на число - состояние снежного покрова и степень покрытия местности в баллах.